Location: Chester
(43.2628°N, 72.5951°W)
Time: 16:13:40
(UTC-05:00)

ISS - Visible Passes

Search period start: 20 November 2017 00:00
Search period end: 30 November 2017 00:00
Orbit: 402 x 407 km, 51.6° (Epoch: 21 November)

Date Brightness Start Highest point End Pass type
(mag) Time Alt. Az. Time Alt. Az. Time Alt. Az.
25 Nov -1.3 17:52:33 10° SSE 17:52:58 11° SSE 17:52:58 11° SSE visible
26 Nov -1.6 18:34:33 10° SW 18:35:49 21° SSW 18:35:49 21° SSW visible
27 Nov -2.7 17:42:39 10° SSW 17:45:30 28° SE 17:45:53 27° ESE visible
28 Nov -1.7 16:51:19 10° S 16:53:20 15° SE 16:55:21 10° E visible
28 Nov -2.6 18:26:10 10° WSW 18:28:32 43° WSW 18:28:32 43° WSW visible
29 Nov -3.8 17:33:50 10° SW 17:37:05 64° SE 17:38:25 31° ENE visible
29 Nov -0.3 19:10:55 10° WNW 19:11:05 11° WNW 19:11:05 11° WNW visible
